����������;��������(kWh)
2015-12-07 00:00;72,8
2015-12-07 00:15;73,5
2015-12-07 00:30;71,4
2015-12-07 00:45;75,65
2015-12-07 01:00;77
2015-12-07 01:15;76,45
2015-12-07 01:30;75,6
2015-12-07 01:45;75,4
2015-12-07 02:00;76,5
2015-12-07 02:15;78,25
2015-12-07 02:30;76,95
2015-12-07 02:45;70,1
2015-12-07 03:00;71,3
2015-12-07 03:15;70,95
2015-12-07 03:30;69,85
2015-12-07 03:45;69,6
2015-12-07 04:00;72,6
2015-12-07 04:15;72,7
2015-12-07 04:30;72,3
2015-12-07 04:45;73,7
2015-12-07 05:00;73,9
2015-12-07 05:15;71,2
2015-12-07 05:30;73,25
2015-12-07 05:45;68,95
2015-12-07 06:00;74,95
2015-12-07 06:15;75,4
2015-12-07 06:30;81,7
2015-12-07 06:45;90,8
2015-12-07 07:00;90,25
2015-12-07 07:15;110,25
2015-12-07 07:30;110,9
2015-12-07 07:45;115,95
2015-12-07 08:00;115
2015-12-07 08:15;160,2
2015-12-07 08:30;178,65
2015-12-07 08:45;138
2015-12-07 09:00;156,15
2015-12-07 09:15;167,1
2015-12-07 09:30;184,45
2015-12-07 09:45;190,45
2015-12-07 10:00;194,65
2015-12-07 10:15;198
2015-12-07 10:30;196,6
2015-12-07 10:45;210,45
2015-12-07 11:00;201,3
2015-12-07 11:15;203,9
2015-12-07 11:30;200,25
2015-12-07 11:45;214,3
2015-12-07 12:00;217,8
2015-12-07 12:15;208,35
2015-12-07 12:30;208
2015-12-07 12:45;203
2015-12-07 13:00;207,5
2015-12-07 13:15;206
2015-12-07 13:30;213,2
2015-12-07 13:45;203,4
2015-12-07 14:00;209,85
2015-12-07 14:15;200,1
2015-12-07 14:30;200,95
2015-12-07 14:45;188,1
2015-12-07 15:00;191,75
2015-12-07 15:15;177,85
2015-12-07 15:30;174,3
2015-12-07 15:45;166,2
2015-12-07 16:00;164,75
2015-12-07 16:15;149,05
2015-12-07 16:30;148,9
2015-12-07 16:45;149,55
2015-12-07 17:00;144,85
2015-12-07 17:15;148,95
2015-12-07 17:30;152,4
2015-12-07 17:45;159,4
2015-12-07 18:00;160,65
2015-12-07 18:15;142,95
2015-12-07 18:30;141,1
2015-12-07 18:45;144
2015-12-07 19:00;141,75
2015-12-07 19:15;129,5
2015-12-07 19:30;133,5
2015-12-07 19:45;125,75
2015-12-07 20:00;120,4
2015-12-07 20:15;115,65
2015-12-07 20:30;109,85
2015-12-07 20:45;109,45
2015-12-07 21:00;105,1
2015-12-07 21:15;99,4
2015-12-07 21:30;97,25
2015-12-07 21:45;94,55
2015-12-07 22:00;92,45
2015-12-07 22:15;88,15
2015-12-07 22:30;86,8
2015-12-07 22:45;86,8
2015-12-07 23:00;82,6
2015-12-07 23:15;83,6
2015-12-07 23:30;78,8
2015-12-07 23:45;78,5
2015-12-08 00:00;77,1
2015-12-08 00:15;80,15
2015-12-08 00:30;81,65
2015-12-08 00:45;85,3
2015-12-08 01:00;84,55
2015-12-08 01:15;83,95
2015-12-08 01:30;82,7
2015-12-08 01:45;79,4
2015-12-08 02:00;74
2015-12-08 02:15;75
2015-12-08 02:30;73,75
2015-12-08 02:45;72,95
2015-12-08 03:00;73,3
2015-12-08 03:15;72,1
2015-12-08 03:30;72,5
2015-12-08 03:45;73,2
2015-12-08 04:00;76,6
2015-12-08 04:15;73,8
2015-12-08 04:30;73,9
2015-12-08 04:45;73,8
2015-12-08 05:00;74,15
2015-12-08 05:15;74,1
2015-12-08 05:30;76,55
2015-12-08 05:45;80,6
2015-12-08 06:00;84,85
2015-12-08 06:15;88
2015-12-08 06:30;83,1
2015-12-08 06:45;84,45
2015-12-08 07:00;84,1
2015-12-08 07:15;101,9
2015-12-08 07:30;113,7
2015-12-08 07:45;112,15
2015-12-08 08:00;159,2
2015-12-08 08:15;121,75
2015-12-08 08:30;130,65
2015-12-08 08:45;128,35
2015-12-08 09:00;154,45
2015-12-08 09:15;163,65
2015-12-08 09:30;169,05
2015-12-08 09:45;177,2
2015-12-08 10:00;176,75
2015-12-08 10:15;175,3
2015-12-08 10:30;190,4
2015-12-08 10:45;192,9
2015-12-08 11:00;213
2015-12-08 11:15;201
2015-12-08 11:30;215,35
2015-12-08 11:45;210,05
2015-12-08 12:00;208,9
2015-12-08 12:15;215,05
2015-12-08 12:30;228,25
2015-12-08 12:45;216,2
2015-12-08 13:00;212,4
2015-12-08 13:15;207,55
2015-12-08 13:30;209,45
2015-12-08 13:45;215,45
2015-12-08 14:00;203,5
2015-12-08 14:15;200,1
2015-12-08 14:30;197,65
2015-12-08 14:45;194,2
2015-12-08 15:00;183,6
2015-12-08 15:15;181,55
2015-12-08 15:30;180,45
2015-12-08 15:45;185,95
2015-12-08 16:00;183,6
2015-12-08 16:15;168,25
2015-12-08 16:30;168,05
2015-12-08 16:45;186,65
2015-12-08 17:00;176,45
2015-12-08 17:15;170,7
2015-12-08 17:30;174,35
2015-12-08 17:45;173,4
2015-12-08 18:00;164,85
2015-12-08 18:15;165,05
2015-12-08 18:30;161,6
2015-12-08 18:45;158,65
2015-12-08 19:00;159,45
2015-12-08 19:15;153,3
2015-12-08 19:30;147,6
2015-12-08 19:45;134,5
2015-12-08 20:00;136,5
2015-12-08 20:15;132,15
2015-12-08 20:30;129,65
2015-12-08 20:45;125,3
2015-12-08 21:00;117
2015-12-08 21:15;114,2
2015-12-08 21:30;111,4
2015-12-08 21:45;100,85
2015-12-08 22:00;89,45
2015-12-08 22:15;87,4
2015-12-08 22:30;87,8
2015-12-08 22:45;87,95
2015-12-08 23:00;87,25
2015-12-08 23:15;84,45
2015-12-08 23:30;84,1
2015-12-08 23:45;85,3
2015-12-09 00:00;84,95
2015-12-09 00:15;84,05
2015-12-09 00:30;77,85
2015-12-09 00:45;77
2015-12-09 01:00;77,5
2015-12-09 01:15;75,8
2015-12-09 01:30;75,4
2015-12-09 01:45;76,1
2015-12-09 02:00;77
2015-12-09 02:15;76
2015-12-09 02:30;74,85
2015-12-09 02:45;75,95
2015-12-09 03:00;74,55
2015-12-09 03:15;74,5
2015-12-09 03:30;74,55
2015-12-09 03:45;74,6
2015-12-09 04:00;83,9
2015-12-09 04:15;85,4
2015-12-09 04:30;85,45
2015-12-09 04:45;89,45
2015-12-09 05:00;99,4
2015-12-09 05:15;98,2
2015-12-09 05:30;95,35
2015-12-09 05:45;90,55
2015-12-09 06:00;92,15
2015-12-09 06:15;97,5
2015-12-09 06:30;99,6
2015-12-09 06:45;99,4
2015-12-09 07:00;99,55
2015-12-09 07:15;116,4
2015-12-09 07:30;129,15
2015-12-09 07:45;126,95
2015-12-09 08:00;167,9
2015-12-09 08:15;146,05
2015-12-09 08:30;149,2
2015-12-09 08:45;146,05
2015-12-09 09:00;161,2
2015-12-09 09:15;188,4
2015-12-09 09:30;193,9
2015-12-09 09:45;208,3
2015-12-09 10:00;207,9
2015-12-09 10:15;217,45
2015-12-09 10:30;219,35
2015-12-09 10:45;216,45
2015-12-09 11:00;237,95
2015-12-09 11:15;251,85
2015-12-09 11:30;260,5
2015-12-09 11:45;269,95
2015-12-09 12:00;253,7
2015-12-09 12:15;244,45
2015-12-09 12:30;234,75
2015-12-09 12:45;246,75
2015-12-09 13:00;239,1
2015-12-09 13:15;228,5
2015-12-09 13:30;234,8
2015-12-09 13:45;223,75
2015-12-09 14:00;227,35
2015-12-09 14:15;217,45
2015-12-09 14:30;229,15
2015-12-09 14:45;211,45
2015-12-09 15:00;215,65
2015-12-09 15:15;205,65
2015-12-09 15:30;199,65
2015-12-09 15:45;195,95
2015-12-09 16:00;189,95
2015-12-09 16:15;179,45
2015-12-09 16:30;180,3
2015-12-09 16:45;178,5
2015-12-09 17:00;172,6
2015-12-09 17:15;170,65
2015-12-09 17:30;175,05
2015-12-09 17:45;175,45
2015-12-09 18:00;172
2015-12-09 18:15;167,55
2015-12-09 18:30;161,1
2015-12-09 18:45;161,95
2015-12-09 19:00;161,45
2015-12-09 19:15;148,1
2015-12-09 19:30;134,9
2015-12-09 19:45;144,4
2015-12-09 20:00;147
2015-12-09 20:15;136,1
2015-12-09 20:30;126,4
2015-12-09 20:45;122,6
2015-12-09 21:00;117,7
2015-12-09 21:15;113,85
2015-12-09 21:30;107,65
2015-12-09 21:45;110,95
2015-12-09 22:00;100,8
2015-12-09 22:15;88,95
2015-12-09 22:30;87,9
2015-12-09 22:45;87,1
2015-12-09 23:00;89,2
2015-12-09 23:15;89,55
2015-12-09 23:30;90,3
2015-12-09 23:45;88,2
2015-12-10 00:00;88,75
2015-12-10 00:15;88,3
2015-12-10 00:30;85,2
2015-12-10 00:45;78,95
2015-12-10 01:00;78,25
2015-12-10 01:15;78,5
2015-12-10 01:30;76,55
2015-12-10 01:45;76,9
2015-12-10 02:00;77,55
2015-12-10 02:15;77,15
2015-12-10 02:30;76,7
2015-12-10 02:45;76,65
2015-12-10 03:00;77,7
2015-12-10 03:15;75,85
2015-12-10 03:30;75,15
2015-12-10 03:45;74,6
2015-12-10 04:00;78,4
2015-12-10 04:15;77,8
2015-12-10 04:30;79,75
2015-12-10 04:45;89,9
2015-12-10 05:00;96,75
2015-12-10 05:15;96,85
2015-12-10 05:30;98,15
2015-12-10 05:45;94,65
2015-12-10 06:00;90,75
2015-12-10 06:15;100,8
2015-12-10 06:30;107,75
2015-12-10 06:45;103,35
2015-12-10 07:00;103,15
2015-12-10 07:15;124,85
2015-12-10 07:30;135,2
2015-12-10 07:45;129,55
2015-12-10 08:00;177,95
2015-12-10 08:15;141,75
2015-12-10 08:30;144,7
2015-12-10 08:45;157,95
2015-12-10 09:00;179,1
2015-12-10 09:15;193,3
2015-12-10 09:30;201
2015-12-10 09:45;210
2015-12-10 10:00;213,3
2015-12-10 10:15;226,8
2015-12-10 10:30;221
2015-12-10 10:45;234,75
2015-12-10 11:00;228,25
2015-12-10 11:15;238,55
2015-12-10 11:30;239,3
2015-12-10 11:45;250,2
2015-12-10 12:00;246,6
2015-12-10 12:15;234,65
2015-12-10 12:30;243,85
2015-12-10 12:45;244,35
2015-12-10 13:00;231,2
2015-12-10 13:15;243,75
2015-12-10 13:30;234,35
2015-12-10 13:45;227,25
2015-12-10 14:00;219,55
2015-12-10 14:15;227,4
2015-12-10 14:30;219
2015-12-10 14:45;204,75
2015-12-10 15:00;212,05
2015-12-10 15:15;192,75
2015-12-10 15:30;185,35
2015-12-10 15:45;184,6
2015-12-10 16:00;173
2015-12-10 16:15;172,5
2015-12-10 16:30;167,4
2015-12-10 16:45;169,05
2015-12-10 17:00;171
2015-12-10 17:15;178
2015-12-10 17:30;181,4
2015-12-10 17:45;188,35
2015-12-10 18:00;176,65
2015-12-10 18:15;168,55
2015-12-10 18:30;165,7
2015-12-10 18:45;168
2015-12-10 19:00;154,9
2015-12-10 19:15;137,45
2015-12-10 19:30;126,65
2015-12-10 19:45;122,5
2015-12-10 20:00;118,55
2015-12-10 20:15;113,85
2015-12-10 20:30;112,6
2015-12-10 20:45;113,6
2015-12-10 21:00;105,55
2015-12-10 21:15;99,6
2015-12-10 21:30;95,75
2015-12-10 21:45;93,9
2015-12-10 22:00;92,95
2015-12-10 22:15;90,7
2015-12-10 22:30;89
2015-12-10 22:45;88,35
2015-12-10 23:00;87,15
2015-12-10 23:15;85,05
2015-12-10 23:30;83,7
2015-12-10 23:45;83,3
2015-12-11 00:00;81,85
2015-12-11 00:15;80,55
2015-12-11 00:30;80,85
2015-12-11 00:45;79,75
2015-12-11 01:00;81,85
2015-12-11 01:15;82,35
2015-12-11 01:30;80,45
2015-12-11 01:45;80,55
2015-12-11 02:00;83,15
2015-12-11 02:15;87,45
2015-12-11 02:30;85,35
2015-12-11 02:45;86,1
2015-12-11 03:00;85,5
2015-12-11 03:15;85,65
2015-12-11 03:30;85,2
2015-12-11 03:45;87,2
2015-12-11 04:00;83,2
2015-12-11 04:15;78,2
2015-12-11 04:30;76,05
2015-12-11 04:45;79,95
2015-12-11 05:00;79,1
2015-12-11 05:15;81,9
2015-12-11 05:30;89,25
2015-12-11 05:45;91,8
2015-12-11 06:00;90,45
2015-12-11 06:15;99,3
2015-12-11 06:30;98,15
2015-12-11 06:45;93,95
2015-12-11 07:00;96,3
2015-12-11 07:15;120,05
2015-12-11 07:30;130,55
2015-12-11 07:45;128,7
2015-12-11 08:00;133,9
2015-12-11 08:15;116,1
2015-12-11 08:30;136,05
2015-12-11 08:45;143,7
2015-12-11 09:00;151,1
2015-12-11 09:15;165,05
2015-12-11 09:30;169,4
2015-12-11 09:45;179,75
2015-12-11 10:00;179,85
2015-12-11 10:15;192,2
2015-12-11 10:30;211,9
2015-12-11 10:45;242,3
2015-12-11 11:00;207,95
2015-12-11 11:15;205,75
2015-12-11 11:30;213,9
2015-12-11 11:45;229,75
2015-12-11 12:00;234,25
2015-12-11 12:15;243
2015-12-11 12:30;252,95
2015-12-11 12:45;244,65
2015-12-11 13:00;256,6
2015-12-11 13:15;245,25
2015-12-11 13:30;245,15
2015-12-11 13:45;223,6
2015-12-11 14:00;228,2
2015-12-11 14:15;227,55
2015-12-11 14:30;228,25
2015-12-11 14:45;217,7
2015-12-11 15:00;223,65
2015-12-11 15:15;210,6
2015-12-11 15:30;202,9
2015-12-11 15:45;194,7
2015-12-11 16:00;185,05
2015-12-11 16:15;179,4
2015-12-11 16:30;175,05
2015-12-11 16:45;172,3
2015-12-11 17:00;167,25
2015-12-11 17:15;157,2
2015-12-11 17:30;158,8
2015-12-11 17:45;165
2015-12-11 18:00;161,8
2015-12-11 18:15;159,65
2015-12-11 18:30;149,95
2015-12-11 18:45;151,5
2015-12-11 19:00;147,4
2015-12-11 19:15;135,85
2015-12-11 19:30;130,25
2015-12-11 19:45;122,4
2015-12-11 20:00;116,35
2015-12-11 20:15;113,55
2015-12-11 20:30;113,9
2015-12-11 20:45;109,7
2015-12-11 21:00;107,75
2015-12-11 21:15;105,8
2015-12-11 21:30;103,6
2015-12-11 21:45;98,85
2015-12-11 22:00;99
2015-12-11 22:15;101,7
2015-12-11 22:30;98,9
2015-12-11 22:45;97,85
2015-12-11 23:00;95,95
2015-12-11 23:15;92,35
2015-12-11 23:30;92,35
2015-12-11 23:45;90,4
2015-12-12 00:00;90,7
2015-12-12 00:15;92,65
2015-12-12 00:30;92,5
2015-12-12 00:45;88,45
2015-12-12 01:00;82,45
2015-12-12 01:15;82,1
2015-12-12 01:30;83,4
2015-12-12 01:45;80,85
2015-12-12 02:00;80,45
2015-12-12 02:15;81
2015-12-12 02:30;80,05
2015-12-12 02:45;79,3
2015-12-12 03:00;80,9
2015-12-12 03:15;81,75
2015-12-12 03:30;81,35
2015-12-12 03:45;80
2015-12-12 04:00;81,6
2015-12-12 04:15;79,3
2015-12-12 04:30;82,1
2015-12-12 04:45;78,3
2015-12-12 05:00;78,25
2015-12-12 05:15;75,2
2015-12-12 05:30;77,55
2015-12-12 05:45;73,05
2015-12-12 06:00;74,35
2015-12-12 06:15;79,55
2015-12-12 06:30;80,35
2015-12-12 06:45;73,55
2015-12-12 07:00;72,6
2015-12-12 07:15;73,35
2015-12-12 07:30;72,3
2015-12-12 07:45;70,2
2015-12-12 08:00;74,3
2015-12-12 08:15;75,8
2015-12-12 08:30;70,4
2015-12-12 08:45;71,3
2015-12-12 09:00;69,5
2015-12-12 09:15;67,05
2015-12-12 09:30;65,65
2015-12-12 09:45;66,3
2015-12-12 10:00;67,05
2015-12-12 10:15;72,8
2015-12-12 10:30;71,35
2015-12-12 10:45;82,15
2015-12-12 11:00;98,1
2015-12-12 11:15;88,05
2015-12-12 11:30;87,3
2015-12-12 11:45;89,55
2015-12-12 12:00;93,55
2015-12-12 12:15;94,85
2015-12-12 12:30;89,3
2015-12-12 12:45;83,45
2015-12-12 13:00;89,5
2015-12-12 13:15;88,15
2015-12-12 13:30;93,3
2015-12-12 13:45;94,3
2015-12-12 14:00;94,7
2015-12-12 14:15;88,15
2015-12-12 14:30;86,5
2015-12-12 14:45;89,6
2015-12-12 15:00;90,45
2015-12-12 15:15;93,65
2015-12-12 15:30;89,8
2015-12-12 15:45;88,85
2015-12-12 16:00;84,15
2015-12-12 16:15;84
2015-12-12 16:30;86,65
2015-12-12 16:45;85,8
2015-12-12 17:00;96,95
2015-12-12 17:15;93,15
2015-12-12 17:30;92,55
2015-12-12 17:45;95,1
2015-12-12 18:00;95,55
2015-12-12 18:15;94,45
2015-12-12 18:30;96,1
2015-12-12 18:45;96,5
2015-12-12 19:00;92,45
2015-12-12 19:15;89,05
2015-12-12 19:30;89,3
2015-12-12 19:45;90,4
2015-12-12 20:00;92,75
2015-12-12 20:15;92,75
2015-12-12 20:30;89,55
2015-12-12 20:45;87,8
2015-12-12 21:00;90,75
2015-12-12 21:15;92,65
2015-12-12 21:30;99,25
2015-12-12 21:45;99,9
2015-12-12 22:00;94,55
2015-12-12 22:15;90,95
2015-12-12 22:30;87,4
2015-12-12 22:45;92,8
2015-12-12 23:00;94,75
2015-12-12 23:15;94,75
2015-12-12 23:30;94,7
2015-12-12 23:45;93,7
2015-12-13 00:00;93,75
2015-12-13 00:15;94,1
2015-12-13 00:30;93,7
2015-12-13 00:45;90,3
2015-12-13 01:00;83,7
2015-12-13 01:15;83,05
2015-12-13 01:30;84,8
2015-12-13 01:45;83,25
2015-12-13 02:00;82,3
2015-12-13 02:15;83
2015-12-13 02:30;81,9
2015-12-13 02:45;81,25
2015-12-13 03:00;81,75
2015-12-13 03:15;82,1
2015-12-13 03:30;82,95
2015-12-13 03:45;80,95
2015-12-13 04:00;82,7
2015-12-13 04:15;82,15
2015-12-13 04:30;83,3
2015-12-13 04:45;84,65
2015-12-13 05:00;83,75
2015-12-13 05:15;82,35
2015-12-13 05:30;84,3
2015-12-13 05:45;79,45
2015-12-13 06:00;82,5
2015-12-13 06:15;84,95
2015-12-13 06:30;85,75
2015-12-13 06:45;86,45
2015-12-13 07:00;88,75
2015-12-13 07:15;87,4
2015-12-13 07:30;86
2015-12-13 07:45;87,1
2015-12-13 08:00;85,95
2015-12-13 08:15;83,15
2015-12-13 08:30;82,45
2015-12-13 08:45;82,85
2015-12-13 09:00;81
2015-12-13 09:15;78,95
2015-12-13 09:30;73,9
2015-12-13 09:45;73,95
2015-12-13 10:00;75,55
2015-12-13 10:15;77,3
2015-12-13 10:30;80,25
2015-12-13 10:45;86,5
2015-12-13 11:00;93,2
2015-12-13 11:15;78,3
2015-12-13 11:30;76,7
2015-12-13 11:45;78,6
2015-12-13 12:00;81,5
2015-12-13 12:15;78,4
2015-12-13 12:30;79,5
2015-12-13 12:45;79,2
2015-12-13 13:00;80,95
2015-12-13 13:15;80,9
2015-12-13 13:30;84,8
2015-12-13 13:45;85,15
2015-12-13 14:00;83,85
2015-12-13 14:15;86,65
2015-12-13 14:30;91,95
2015-12-13 14:45;96,8
2015-12-13 15:00;90,85
2015-12-13 15:15;97,5
2015-12-13 15:30;95,8
2015-12-13 15:45;95,8
2015-12-13 16:00;93,4
2015-12-13 16:15;97,8
2015-12-13 16:30;100,25
2015-12-13 16:45;97,9
2015-12-13 17:00;96,85
2015-12-13 17:15;94,5
2015-12-13 17:30;97,8
2015-12-13 17:45;85
2015-12-13 18:00;83,4
2015-12-13 18:15;82,8
2015-12-13 18:30;84,3
2015-12-13 18:45;90,45
2015-12-13 19:00;92,4
2015-12-13 19:15;90,65
2015-12-13 19:30;100,8
2015-12-13 19:45;98,1
2015-12-13 20:00;99,1
2015-12-13 20:15;102,15
2015-12-13 20:30;89,55
2015-12-13 20:45;93,3
2015-12-13 21:00;95,5
2015-12-13 21:15;96,9
2015-12-13 21:30;95,6
2015-12-13 21:45;89,5
2015-12-13 22:00;87,25
2015-12-13 22:15;88,65
2015-12-13 22:30;90,4
2015-12-13 22:45;89,7
2015-12-13 23:00;89,5
2015-12-13 23:15;84,9
2015-12-13 23:30;79,4
2015-12-13 23:45;79,95

